4XCHA LLHZ-LLBG

Flight info

Callsign 4XCHA
Flight time 0h -4m
Altitude 2500
Route GNYAM PARDS
Aircraft C172/L-SD/C

Departure

Time 2026-04-26 15:48
Airport Herzliya Airport (LLHZ)

Arrival

Time 2026-04-26 15:44
Airport Ben Gurion International Airport (LLBG)
Time Latitude Longitude Altitude Speed Heading
2026-04-26 15:44 32.17966 34.83521 111 ft 0 kts 110°
2026-04-26 15:46 32.17962 34.83561 112 ft 12 kts 99°
2026-04-26 15:46 32.17927 34.83689 118 ft 17 kts 108°
2026-04-26 15:46 32.17899 34.83781 123 ft 18 kts 110°
2026-04-26 15:47 32.17882 34.83836 122 ft 0 kts 108°
2026-04-26 15:47 32.17895 34.83864 125 ft 10 kts 15°
2026-04-26 15:47 32.17945 34.83746 119 ft 39 kts 289°
2026-04-26 15:48 32.18087 34.83292 206 ft 69 kts 288°
2026-04-26 15:48 32.18202 34.82944 379 ft 66 kts 297°
2026-04-26 15:48 32.18827 34.82736 559 ft 81 kts 354°
2026-04-26 15:48 32.19335 34.83027 743 ft 99 kts 66°
2026-04-26 15:49 32.19268 34.83772 1032 ft 93 kts 106°
2026-04-26 15:49 32.19067 34.84507 1199 ft 102 kts 113°
2026-04-26 15:49 32.18768 34.85308 1219 ft 110 kts 117°
2026-04-26 15:49 32.18426 34.86147 1189 ft 114 kts 117°
2026-04-26 15:50 32.18083 34.87000 1150 ft 118 kts 120°
2026-04-26 15:50 32.17649 34.87788 1160 ft 116 kts 133°
2026-04-26 15:50 32.17084 34.88450 1168 ft 113 kts 143°
2026-04-26 15:50 32.16478 34.89019 1167 ft 111 kts 155°
2026-04-26 15:51 32.15747 34.89311 1187 ft 112 kts 174°
2026-04-26 15:51 32.14982 34.89470 1170 ft 108 kts 179°
2026-04-26 15:51 32.14254 34.89437 1181 ft 101 kts 198°
2026-04-26 15:51 32.13569 34.89224 1141 ft 106 kts 205°
2026-04-26 15:52 32.12881 34.88892 1171 ft 109 kts 213°
2026-04-26 15:52 32.12199 34.88464 1177 ft 111 kts 216°
2026-04-26 15:52 32.11525 34.88036 1186 ft 110 kts 213°
2026-04-26 15:52 32.11059 34.87763 1181 ft 111 kts 208°
2026-04-26 15:53 32.10040 34.87652 1254 ft 112 kts 180°
2026-04-26 15:53 32.09273 34.87781 1226 ft 108 kts 178°
2026-04-26 15:53 32.08542 34.87929 1161 ft 105 kts 175°
2026-04-26 15:53 32.07828 34.88084 1151 ft 104 kts 174°
2026-04-26 15:54 32.07125 34.88238 1155 ft 103 kts 174°
2026-04-26 15:54 32.06427 34.88397 1146 ft 99 kts 174°
2026-04-26 15:54 32.05745 34.88519 1120 ft 99 kts 176°
2026-04-26 15:54 32.05082 34.88690 1220 ft 99 kts 169°
2026-04-26 15:55 32.04403 34.88938 1240 ft 108 kts 170°
2026-04-26 15:55 32.03671 34.89205 1191 ft 113 kts 168°
2026-04-26 15:55 32.02972 34.89606 1193 ft 115 kts 154°
2026-04-26 15:55 32.02467 34.90361 1191 ft 118 kts 117°
2026-04-26 15:56 32.02138 34.91226 1259 ft 115 kts 111°
2026-04-26 15:56 32.01748 34.92054 1242 ft 119 kts 122°
2026-04-26 15:56 32.01148 34.92521 1250 ft 101 kts 193°
2026-04-26 15:56 32.00522 34.92223 1193 ft 98 kts 211°
2026-04-26 15:57 31.99877 34.91904 1188 ft 102 kts 212°
2026-04-26 15:57 31.99348 34.91488 1036 ft 83 kts 249°
2026-04-26 15:57 31.99217 34.90859 730 ft 83 kts 302°
2026-04-26 15:57 31.99453 34.90468 521 ft 85 kts 301°
2026-04-26 15:58 31.99782 34.89850 360 ft 60 kts 299°
2026-04-26 15:58 32.00009 34.89408 138 ft 60 kts 299°
2026-04-26 15:58 32.00168 34.89097 114 ft 31 kts 301°
2026-04-26 15:58 32.00263 34.88916 115 ft 16 kts 302°
2026-04-26 15:59 32.00321 34.88843 116 ft 14 kts 343°
2026-04-26 15:59 32.00424 34.88894 115 ft 22 kts 28°
2026-04-26 15:59 32.00493 34.88946 115 ft 16 kts 57°
2026-04-26 15:59 32.00485 34.89026 115 ft 15 kts 122°
2026-04-26 16:00 32.00408 34.89176 113 ft 24 kts 120°
2026-04-26 16:00 32.00326 34.89337 114 ft 23 kts 122°
2026-04-26 16:00 32.00249 34.89484 114 ft 19 kts 123°
2026-04-26 16:00 32.00244 34.89572 114 ft 16 kts 44°
2026-04-26 16:01 32.00338 34.89613 114 ft 14 kts 14°
2026-04-26 16:01 32.00426 34.89644 114 ft 13 kts 17°
2026-04-26 16:01 32.00513 34.89675 114 ft 13 kts 21°
2026-04-26 16:01 32.00575 34.89647 114 ft 9 kts 299°
2026-04-26 16:02 32.00584 34.89630 114 ft 0 kts 309°
2026-04-26 16:03 32.00606 34.89622 114 ft 9 kts 13°
2026-04-26 16:03 32.00654 34.89602 114 ft 9 kts 295°
2026-04-26 16:03 32.00660 34.89589 114 ft 0 kts 297°